RH
81 78 75 74 74 73 72 73 70 64 59 56 52 47 44 41 39 36 35 34 33 33 33 33 32 30 28 26 24 22 21 21 20 20 20 20 20 21 21 21 22 23 23 23 23 24 25 25 24 22 19 17 16 14 13 12 12 11 11 11 12 12 11
82 80 77 73 71 69 71 71 66 59 56 54 50 46 43 40 37 36 35 34 34 34 33 32 30 28 26 24 23 23 22 22 22 21 21 20 20 21 21 22 22 24 24 24 25 24 24 25 24 21 18 15 13 12 11 11 10 10 10 10 10 11 11
81 81 79 74 69 68 71 69 62 56 55 53 48 45 42 39 37 36 35 35 35 34 31 30 28 26 25 24 24 24 24 23 23 22 21 20 21 21 22 22 22 23 23 23 24 24 24 23 21 18 14 12 11 10 10 9 10 10 10 10 9 10 10
81 81 78 72 68 69 71 66 58 54 53 51 47 43 41 38 37 36 35 35 33 31 29 28 27 26 25 25 25 24 23 23 23 22 22 21 21 22 22 22 22 21 22 22 24 24 23 20 17 14 11 10 9 8 9 8 8 9 9 9 9 9 9
82 80 75 72 72 73 70 61 54 52 52 49 45 41 40 38 38 37 35 33 31 30 29 28 27 26 26 25 24 24 23 23 23 22 22 21 21 22 22 22 21 21 22 23 23 21 19 16 13 11 10 9 8 7 8 7 7 8 8 8 9 9 9
81 79 77 77 78 73 66 57 52 51 50 48 44 42 42 41 40 37 33 32 31 30 29 28 28 27 26 26 25 24 23 23 23 22 22 21 21 22 21 21 21 22 23 22 20 16 14 13 10 9 8 7 8 7 7 7 7 7 7 7 8 8 8
82 82 81 79 75 68 61 55 50 48 48 48 45 44 42 40 37 34 33 33 31 30 29 28 28 27 26 26 25 25 24 23 22 21 21 21 21 21 20 20 20 21 20 18 16 13 11 10 8 8 8 7 7 6 6 6 6 6 6 6 7 8 8
83 83 79 73 68 63 57 52 46 45 48 48 45 42 40 37 35 35 34 33 31 30 29 28 28 27 27 27 26 25 23 22 21 20 21 21 21 21 20 20 19 18 16 15 13 11 9 9 8 8 8 7 7 6 5 5 5 6 6 5 6 7 7
83 80 73 66 63 57 53 50 47 48 49 48 45 41 39 36 35 35 33 32 31 30 30 28 28 28 28 27 26 24 22 21 20 21 22 22 21 21 20 19 17 16 15 13 11 9 9 9 9 8 8 8 8 8 6 4 4 5 6 6 6 6 7
80 74 66 62 59 56 55 55 55 53 50 47 43 39 36 34 34 33 32 31 31 31 30 29 29 29 29 28 25 23 22 21 21 22 22 22 21 21 19 17 16 14 12 11 10 9 9 9 9 9 9 9 9 11 11 9 5 5 6 6 7 7 7
73 69 66 64 63 62 62 62 61 57 49 43 38 35 33 33 33 32 32 31 31 31 31 30 30 30 28 26 24 23 22 21 22 23 23 22 20 18 17 15 14 12 10 10 10 10 9 10 9 9 9 9 10 12 15 14 9 6 7 7 7 8 8
71 70 70 69 68 67 66 64 62 56 45 37 34 32 32 32 33 33 32 31 31 31 31 31 30 29 27 25 23 22 22 23 24 23 22 20 18 17 15 14 12 10 10 10 10 10 10 10 9 8 8 10 11 13 15 16 13 7 7 8 7 8 9
74 75 74 72 71 69 66 62 58 52 43 36 34 33 33 34 34 34 32 31 32 32 32 31 29 28 26 24 22 21 22 23 23 21 19 18 16 16 14 12 11 10 10 11 10 10 10 9 8 8 8 8 11 12 13 14 14 9 7 8 8 8 9
77 76 73 72 71 68 63 58 55 50 42 37 35 34 34 35 35 34 33 32 33 33 32 30 28 26 24 23 21 21 22 22 20 18 18 17 16 14 12 11 11 11 11 11 11 10 9 9 8 7 7 7 8 10 11 12 13 10 7 8 9 9 10
77 73 72 72 70 65 61 57 54 49 42 38 37 36 35 35 35 35 35 34 33 33 32 29 27 26 24 22 21 20 21 20 19 18 17 16 14 12 11 12 12 12 12 11 10 10 9 8 8 7 7 7 7 8 10 11 12 11 9 8 9 10 10
73 72 71 70 67 64 61 59 54 47 41 39 38 36 35 35 35 36 36 35 34 33 30 28 26 25 23 22 21 20 20 20 19 18 16 14 13 12 12 12 12 12 11 11 10 9 8 8 7 7 7 7 7 7 9 10 11 11 10 9 10 11 11
72 71 70 68 66 64 62 59 53 45 41 41 39 37 35 35 35 36 37 36 34 32 30 27 25 24 23 23 22 20 20 20 19 18 16 13 12 12 12 13 13 12 11 10 9 9 8 7 7 7 7 7 7 7 8 9 10 11 11 11 11 11 12
71 71 70 68 65 63 62 58 51 43 42 42 40 37 36 35 36 37 37 36 34 31 28 25 24 24 24 24 22 20 20 21 20 18 16 14 13 13 13 13 12 12 11 10 9 8 7 7 7 7 7 7 7 8 9 10 10 11 12 12 12 12 12
70 70 69 66 63 62 61 56 48 43 43 44 41 38 36 36 37 38 37 35 33 30 27 25 24 25 25 24 21 20 22 21 20 18 16 15 15 14 14 13 12 11 11 9 8 8 7 7 7 7 7 8 8 9 9 10 11 11 12 13 13 13 13
69 69 67 65 64 62 59 53 47 45 45 45 42 39 37 37 38 38 37 34 31 29 27 25 26 26 25 23 22 22 22 20 18 18 18 17 16 16 14 13 12 11 10 9 8 8 7 7 7 8 8 9 9 9 10 10 11 12 12 13 14 14 14
68 69 68 66 64 62 57 51 47 47 47 46 43 40 38 39 38 37 35 33 30 29 27 27 27 26 24 23 22 22 21 19 18 18 19 19 18 16 15 13 12 11 9 8 8 8 7 7 7 8 9 9 9 9 10 11 11 12 13 13 15 16 16
68 69 68 66 64 60 56 51 48 48 48 46 43 40 40 40 38 37 34 31 30 29 28 28 28 26 24 23 23 22 20 19 18 19 20 19 18 17 15 13 12 10 9 9 8 8 8 8 8 8 9 9 10 10 11 11 12 13 14 14 15 17 18
69 69 67 65 62 59 55 52 50 47 47 47 44 41 41 40 38 36 33 30 30 29 29 29 28 26 25 24 23 22 20 20 19 19 19 19 19 17 15 13 11 10 9 8 8 8 8 8 9 9 9 10 10 11 11 11 12 14 15 16 16 19 20
69 68 66 63 61 57 55 54 51 48 48 47 43 41 42 40 37 35 32 30 30 30 30 29 27 26 25 24 23 22 21 21 20 20 20 19 19 17 15 12 10 9 8 8 7 8 8 8 9 9 10 10 11 11 12 12 13 15 16 17 18 20 21
67 66 65 63 60 57 56 55 52 50 49 47 43 42 42 39 37 34 31 30 31 31 30 28 27 27 26 24 23 22 21 22 21 21 21 20 19 17 15 11 10 9 8 8 8 8 8 9 9 10 10 11 11 11 12 13 14 16 18 18 19 21 21
67 66 65 63 60 58 56 56 54 52 50 46 43 41 41 39 36 34 31 31 32 32 30 28 28 27 26 23 22 21 21 22 21 21 21 20 19 17 14 11 10 9 8 8 8 9 9 9 10 10 11 11 12 12 12 12 13 15 18 19 21 22 21
68 67 64 62 60 58 57 57 56 54 51 47 43 42 41 39 36 33 31 32 33 31 29 29 28 27 25 23 22 21 21 22 22 22 21 20 19 16 13 11 10 9 8 8 9 9 10 10 10 11 11 11 12 12 12 13 13 14 17 19 22 23 22
71 69 63 60 59 57 57 58 57 56 53 48 44 43 42 39 36 32 32 34 33 31 29 29 29 27 25 23 21 21 22 22 22 22 21 20 18 15 12 11 9 9 8 9 10 10 10 11 11 11 11 11 12 12 12 13 13 14 16 19 22 24 23
74 71 64 60 59 58 58 60 60 58 53 48 45 44 42 39 35 32 33 34 32 30 30 30 28 27 25 23 22 22 22 22 23 23 22 20 18 15 12 11 9 9 9 9 10 11 11 12 12 12 12 12 12 13 13 13 14 14 16 18 21 24 24
76 73 66 62 60 59 61 63 61 58 54 49 46 45 41 37 33 33 34 33 31 31 31 30 29 28 25 24 23 23 23 23 23 23 22 19 17 14 12 10 9 9 9 10 11 11 12 13 13 14 14 14 13 13 14 14 14 15 15 16 19 22 23
77 72 67 63 60 60 63 63 59 57 55 51 47 45 41 35 33 34 34 32 31 32 32 30 29 28 26 25 24 24 24 24 23 23 21 18 15 13 11 10 10 10 10 11 11 12 13 13 14 15 15 15 15 14 14 14 14 15 16 16 18 20 22
79 74 70 66 65 66 65 60 56 58 58 53 48 44 39 34 33 35 34 32 32 32 32 31 30 28 27 26 25 25 25 25 24 22 20 17 14 12 11 10 10 10 11 12 12 13 14 14 14 15 16 16 16 15 15 14 14 15 15 16 18 19 21
80 78 75 71 69 67 62 56 58 61 60 55 48 42 36 34 35 36 34 33 33 33 32 31 29 28 27 27 27 26 26 26 25 22 19 16 14 12 11 11 11 11 12 12 13 14 14 14 15 16 16 17 17 16 16 15 15 15 15 16 18 19 21
79 78 76 72 69 65 59 58 62 64 60 54 47 40 35 35 37 36 34 34 34 33 32 31 29 28 27 27 27 28 27 27 26 23 19 16 14 13 12 11 11 12 13 13 14 14 15 15 15 16 17 18 18 18 17 17 16 16 16 16 17 18 20
76 75 73 70 69 65 62 63 66 65 60 53 45 38 35 36 37 36 35 35 35 34 32 30 29 28 27 26 28 29 29 29 26 23 20 17 15 13 12 12 12 12 13 14 14 15 15 16 16 17 18 19 19 20 20 19 18 17 17 17 17 18 19
73 74 74 73 72 69 66 66 69 67 61 54 45 38 36 37 38 37 36 37 36 35 32 30 30 29 28 27 29 30 30 30 27 23 20 17 15 14 13 13 12 13 14 14 15 15 16 16 17 17 18 19 20 20 20 20 20 19 18 18 17 17 18
75 75 75 75 76 73 69 67 69 68 63 55 45 39 38 39 38 37 38 39 37 35 32 30 31 31 30 29 30 31 31 30 27 23 20 18 16 14 13 13 13 13 14 14 15 15 16 16 16 17 18 18 19 20 20 20 20 20 20 19 18 17 17